CHH126 ZYTL-ZKPY

Flight info

Callsign CHH126
Flight time 0h 42m
Altitude 31100
Route SAN09D SANKO B332 PONIL W1 SASRI SAS11A
Aircraft A346/H-SDE2E3FGHIJ3J4J5M1RWXY/LB1D1

Departure

Time 2026-05-06 08:25
Airport Dalian Zhoushuizi International Airport (ZYTL)

Arrival

Time 2026-05-06 09:07
Airport Pyongyang Sunan International Airport (ZKPY)
Time Latitude Longitude Altitude Speed Heading
2026-05-06 07:50 38.96265 121.53396 123 ft 0 kts 182°
2026-05-06 08:05 38.96277 121.53396 123 ft 2 kts 182°
2026-05-06 08:05 38.96292 121.53397 123 ft 2 kts 182°
2026-05-06 08:05 38.96307 121.53397 124 ft 2 kts 182°
2026-05-06 08:06 38.96322 121.53398 123 ft 2 kts 182°
2026-05-06 08:06 38.96337 121.53399 123 ft 2 kts 182°
2026-05-06 08:06 38.96352 121.53399 123 ft 2 kts 183°
2026-05-06 08:06 38.96367 121.53402 123 ft 2 kts 196°
2026-05-06 08:07 38.96381 121.53409 123 ft 2 kts 209°
2026-05-06 08:07 38.96393 121.53419 123 ft 2 kts 220°
2026-05-06 08:07 38.96404 121.53432 123 ft 2 kts 231°
2026-05-06 08:07 38.96412 121.53448 123 ft 2 kts 242°
2026-05-06 08:08 38.96418 121.53465 123 ft 2 kts 253°
2026-05-06 08:08 38.96421 121.53484 123 ft 2 kts 265°
2026-05-06 08:08 38.96422 121.53501 123 ft 0 kts 275°
2026-05-06 08:08 38.96421 121.53508 123 ft 0 kts 277°
2026-05-06 08:20 38.96421 121.53507 123 ft 1 kts 277°
2026-05-06 08:20 38.96425 121.53461 123 ft 8 kts 275°
2026-05-06 08:20 38.96431 121.53364 123 ft 12 kts 273°
2026-05-06 08:20 38.96429 121.53241 123 ft 15 kts 268°
2026-05-06 08:21 38.96428 121.53094 123 ft 17 kts 275°
2026-05-06 08:21 38.96439 121.52932 123 ft 19 kts 276°
2026-05-06 08:21 38.96456 121.52755 123 ft 21 kts 277°
2026-05-06 08:21 38.96472 121.52560 123 ft 22 kts 275°
2026-05-06 08:22 38.96486 121.52349 123 ft 24 kts 275°
2026-05-06 08:22 38.96503 121.52123 124 ft 24 kts 276°
2026-05-06 08:22 38.96529 121.51974 123 ft 13 kts 320°
2026-05-06 08:22 38.96611 121.51962 124 ft 11 kts 348°
2026-05-06 08:23 38.96684 121.51979 123 ft 10 kts 36°
2026-05-06 08:23 38.96700 121.52057 123 ft 10 kts 97°
2026-05-06 08:23 38.96690 121.52165 123 ft 13 kts 94°
2026-05-06 08:23 38.96686 121.52258 123 ft 6 kts 94°
2026-05-06 08:24 38.96685 121.52331 123 ft 9 kts 94°
2026-05-06 08:24 38.96681 121.52384 123 ft 0 kts 98°
2026-05-06 08:24 38.96678 121.52410 123 ft 5 kts 98°
2026-05-06 08:24 38.96651 121.52772 124 ft 82 kts 95°
2026-05-06 08:25 38.96572 121.53830 124 ft 151 kts 96°
2026-05-06 08:25 38.96450 121.55324 448 ft 178 kts 97°
2026-05-06 08:25 38.96321 121.56911 1066 ft 178 kts 98°
2026-05-06 08:25 38.96198 121.58462 1818 ft 176 kts 101°
2026-05-06 08:26 38.96060 121.60049 2334 ft 188 kts 102°
2026-05-06 08:26 38.95902 121.61789 2774 ft 206 kts 101°
2026-05-06 08:26 38.95733 121.63711 3230 ft 225 kts 101°
2026-05-06 08:26 38.95558 121.65778 3692 ft 243 kts 100°
2026-05-06 08:27 38.95368 121.68026 4213 ft 264 kts 100°
2026-05-06 08:27 38.95204 121.70362 5138 ft 268 kts 93°
2026-05-06 08:27 38.95665 121.72662 6087 ft 275 kts 57°
2026-05-06 08:27 38.97043 121.74280 6995 ft 274 kts 22°
2026-05-06 08:28 38.98859 121.74819 7879 ft 270 kts 359°
2026-05-06 08:28 39.00737 121.74877 8767 ft 271 kts 347°
2026-05-06 08:28 39.02460 121.74112 9717 ft 262 kts 321°
2026-05-06 08:28 39.03727 121.72538 10587 ft 256 kts 297°
2026-05-06 08:29 39.04380 121.70405 11098 ft 265 kts 275°
2026-05-06 08:29 39.04530 121.68031 11739 ft 274 kts 272°
2026-05-06 08:29 39.04689 121.65589 12591 ft 277 kts 273°
2026-05-06 08:29 39.04866 121.63152 13471 ft 279 kts 273°
2026-05-06 08:30 39.05016 121.60680 14312 ft 281 kts 267°
2026-05-06 08:30 39.04588 121.58241 15125 ft 284 kts 246°
2026-05-06 08:30 39.03473 121.56151 15912 ft 292 kts 228°
2026-05-06 08:30 39.01806 121.54665 16663 ft 303 kts 208°
2026-05-06 08:31 38.99712 121.54034 17386 ft 318 kts 189°
2026-05-06 08:31 38.97474 121.54256 18085 ft 334 kts 171°
2026-05-06 08:31 38.95312 121.55514 18735 ft 352 kts 150°
2026-05-06 08:31 38.93453 121.57667 19102 ft 374 kts 140°
2026-05-06 08:32 38.91605 121.60107 19402 ft 392 kts 139°
2026-05-06 08:32 38.89657 121.62695 19722 ft 409 kts 139°
2026-05-06 08:32 38.87626 121.65331 20023 ft 424 kts 140°
2026-05-06 08:32 38.85418 121.67884 20321 ft 438 kts 144°
2026-05-06 08:33 38.83012 121.70354 20620 ft 451 kts 147°
2026-05-06 08:33 38.80502 121.72869 21158 ft 458 kts 147°
2026-05-06 08:33 38.77996 121.75374 21796 ft 462 kts 147°
2026-05-06 08:33 38.75451 121.77917 22406 ft 467 kts 147°
2026-05-06 08:34 38.72898 121.80465 22960 ft 472 kts 147°
2026-05-06 08:34 38.67668 121.85683 24070 ft 482 kts 147°
2026-05-06 08:34 38.65036 121.88309 24659 ft 485 kts 148°
2026-05-06 08:35 38.62351 121.90982 25300 ft 487 kts 148°
2026-05-06 08:35 38.59701 121.93622 26104 ft 485 kts 148°
2026-05-06 08:35 38.57044 121.96268 26927 ft 482 kts 148°
2026-05-06 08:35 38.54425 121.98868 27686 ft 480 kts 148°
2026-05-06 08:36 38.51793 122.01481 28396 ft 479 kts 148°
2026-05-06 08:36 38.49181 122.04069 29086 ft 478 kts 149°
2026-05-06 08:36 38.46576 122.06647 29760 ft 478 kts 149°
2026-05-06 08:36 38.43932 122.09258 30278 ft 482 kts 149°
2026-05-06 08:37 38.41261 122.11893 30751 ft 485 kts 149°
2026-05-06 08:37 38.38585 122.14528 30941 ft 489 kts 149°
2026-05-06 08:37 38.35905 122.17172 30941 ft 490 kts 149°
2026-05-06 08:38 38.30800 122.23044 30943 ft 515 kts 134°
2026-05-06 08:38 38.28720 122.26839 30944 ft 536 kts 123°
2026-05-06 08:38 38.27088 122.31319 30945 ft 555 kts 112°
2026-05-06 08:38 38.26117 122.36216 30936 ft 567 kts 99°
2026-05-06 08:39 38.25872 122.41152 30954 ft 568 kts 89°
2026-05-06 08:39 38.26899 122.51074 30958 ft 566 kts 73°
2026-05-06 08:40 38.29466 122.60428 30963 ft 564 kts 65°
2026-05-06 08:40 38.32417 122.69599 30963 ft 561 kts 65°
2026-05-06 08:41 38.35333 122.78861 30966 ft 562 kts 65°
2026-05-06 08:41 38.38168 122.88052 30965 ft 562 kts 66°
2026-05-06 08:42 38.40997 122.97329 30968 ft 561 kts 66°
2026-05-06 08:42 38.43794 123.06531 30978 ft 561 kts 66°
2026-05-06 08:43 38.46610 123.15819 30981 ft 560 kts 66°
2026-05-06 08:43 38.49405 123.25069 30980 ft 560 kts 66°
2026-05-06 08:44 38.52186 123.34312 30964 ft 560 kts 66°
2026-05-06 08:44 38.53562 123.38886 30635 ft 551 kts 66°
2026-05-06 08:44 38.54918 123.43413 30052 ft 546 kts 66°
2026-05-06 08:44 38.56255 123.47881 29455 ft 541 kts 66°
2026-05-06 08:45 38.57594 123.52360 28907 ft 536 kts 66°
2026-05-06 08:45 38.58912 123.56786 28420 ft 530 kts 66°
2026-05-06 08:45 38.60200 123.61118 27928 ft 525 kts 66°
2026-05-06 08:45 38.61488 123.65449 27327 ft 523 kts 66°
2026-05-06 08:46 38.62778 123.69793 26725 ft 519 kts 67°
2026-05-06 08:46 38.64056 123.74107 26071 ft 517 kts 67°
2026-05-06 08:46 38.65322 123.78386 25351 ft 517 kts 67°
2026-05-06 08:46 38.66581 123.82650 24568 ft 518 kts 67°
2026-05-06 08:47 38.67838 123.86928 23953 ft 514 kts 67°
2026-05-06 08:47 38.69085 123.91159 23426 ft 509 kts 67°
2026-05-06 08:47 38.70339 123.95411 22882 ft 504 kts 66°
2026-05-06 08:47 38.71746 123.99442 22387 ft 496 kts 60°
2026-05-06 08:48 38.73420 124.03233 21899 ft 489 kts 55°
2026-05-06 08:48 38.75308 124.06840 21436 ft 481 kts 52°
2026-05-06 08:48 38.77209 124.10304 20994 ft 475 kts 52°
2026-05-06 08:48 38.79096 124.13726 20541 ft 470 kts 52°
2026-05-06 08:49 38.80964 124.17143 20106 ft 464 kts 52°
2026-05-06 08:49 38.82788 124.20512 19686 ft 458 kts 53°
2026-05-06 08:49 38.84390 124.23996 19258 ft 456 kts 62°
2026-05-06 08:49 38.85525 124.27732 18842 ft 452 kts 72°
2026-05-06 08:50 38.86251 124.31652 18396 ft 448 kts 77°
2026-05-06 08:50 38.86845 124.35540 17975 ft 444 kts 78°
2026-05-06 08:50 38.87412 124.39373 17550 ft 440 kts 78°
2026-05-06 08:50 38.87985 124.43224 17119 ft 436 kts 78°
2026-05-06 08:51 38.88556 124.46998 16693 ft 432 kts 78°
2026-05-06 08:51 38.89137 124.50776 16255 ft 429 kts 78°
2026-05-06 08:51 38.89711 124.54479 15832 ft 425 kts 77°
2026-05-06 08:51 38.90287 124.58196 15395 ft 422 kts 77°
2026-05-06 08:52 38.90855 124.61848 14977 ft 419 kts 78°
2026-05-06 08:52 38.91419 124.65497 14558 ft 416 kts 78°
2026-05-06 08:52 38.91982 124.69120 14138 ft 413 kts 78°
2026-05-06 08:52 38.92541 124.72736 13723 ft 409 kts 78°
2026-05-06 08:53 38.93090 124.76297 13313 ft 406 kts 79°
2026-05-06 08:53 38.93634 124.79838 12896 ft 403 kts 78°
2026-05-06 08:53 38.94172 124.83336 12485 ft 400 kts 79°
2026-05-06 08:53 38.94702 124.86811 12067 ft 397 kts 78°
2026-05-06 08:54 38.95233 124.90275 11652 ft 394 kts 79°
2026-05-06 08:54 38.95363 124.91123 11552 ft 393 kts 79°
2026-05-06 08:54 38.95621 124.92815 11346 ft 392 kts 79°
2026-05-06 08:54 38.96144 124.96249 10932 ft 389 kts 79°
2026-05-06 08:55 38.96660 124.99646 10634 ft 380 kts 79°
2026-05-06 08:55 38.97158 125.02924 10490 ft 367 kts 79°
2026-05-06 08:55 38.97633 125.06066 10362 ft 354 kts 79°
2026-05-06 08:55 38.98093 125.09111 10239 ft 343 kts 79°
2026-05-06 08:56 38.98540 125.12076 10141 ft 332 kts 79°
2026-05-06 08:56 38.98967 125.14923 10044 ft 319 kts 79°
2026-05-06 08:56 38.99381 125.17684 9971 ft 307 kts 79°
2026-05-06 08:56 38.99776 125.20316 9883 ft 300 kts 79°
2026-05-06 08:57 39.00172 125.22977 9622 ft 300 kts 79°
2026-05-06 08:57 39.00561 125.25581 9331 ft 299 kts 79°
2026-05-06 08:57 39.00954 125.28213 9029 ft 298 kts 80°
2026-05-06 08:57 39.01341 125.30800 8758 ft 297 kts 80°
2026-05-06 08:58 39.01728 125.33407 8445 ft 297 kts 80°
2026-05-06 08:58 39.02114 125.36007 8178 ft 295 kts 80°
2026-05-06 08:58 39.02590 125.38566 7872 ft 296 kts 66°
2026-05-06 08:58 39.03825 125.40604 7536 ft 291 kts 33°
2026-05-06 08:59 39.05525 125.41943 7283 ft 286 kts 27°
2026-05-06 08:59 39.07261 125.43220 6994 ft 286 kts 27°
2026-05-06 08:59 39.08982 125.44509 6718 ft 285 kts 28°
2026-05-06 08:59 39.10686 125.45820 6454 ft 285 kts 28°
2026-05-06 09:00 39.12375 125.47135 6169 ft 285 kts 28°
2026-05-06 09:00 39.14077 125.48475 5875 ft 285 kts 29°
2026-05-06 09:00 39.15768 125.49812 5570 ft 285 kts 28°
2026-05-06 09:00 39.17451 125.51145 5307 ft 284 kts 29°
2026-05-06 09:01 39.19130 125.52474 5114 ft 280 kts 29°
2026-05-06 09:01 39.20769 125.53774 4985 ft 270 kts 29°
2026-05-06 09:01 39.22395 125.54828 4947 ft 252 kts
2026-05-06 09:01 39.24083 125.54709 4774 ft 240 kts 337°
2026-05-06 09:02 39.25660 125.54015 4463 ft 241 kts 334°
2026-05-06 09:02 39.27226 125.53281 4175 ft 242 kts 334°
2026-05-06 09:02 39.28819 125.52577 3913 ft 240 kts 335°
2026-05-06 09:02 39.30402 125.51914 3703 ft 237 kts 336°
2026-05-06 09:03 39.32029 125.51678 3565 ft 240 kts 11°
2026-05-06 09:03 39.33450 125.52771 3504 ft 243 kts 49°
2026-05-06 09:03 39.34179 125.54694 3168 ft 240 kts 77°
2026-05-06 09:03 39.34544 125.56793 2855 ft 238 kts 83°
2026-05-06 09:04 39.34858 125.58869 2574 ft 233 kts 87°
2026-05-06 09:04 39.34587 125.60844 2285 ft 216 kts 123°
2026-05-06 09:04 39.33593 125.62081 2196 ft 187 kts 160°
2026-05-06 09:04 39.32414 125.62550 2085 ft 173 kts 172°
2026-05-06 09:05 39.31275 125.62875 1909 ft 166 kts 171°
2026-05-06 09:05 39.30162 125.63251 1736 ft 162 kts 169°
2026-05-06 09:05 39.29103 125.63660 1565 ft 156 kts 168°
2026-05-06 09:05 39.28069 125.64069 1356 ft 155 kts 168°
2026-05-06 09:06 39.27036 125.64476 1140 ft 154 kts 167°
2026-05-06 09:06 39.26009 125.64883 935 ft 154 kts 166°
2026-05-06 09:06 39.24989 125.65294 722 ft 153 kts 167°
2026-05-06 09:06 39.23967 125.65704 518 ft 153 kts 166°
2026-05-06 09:07 39.22954 125.66093 324 ft 149 kts 166°
2026-05-06 09:07 39.21971 125.66471 158 ft 144 kts 165°
2026-05-06 09:07 39.21084 125.66824 114 ft 107 kts 167°
2026-05-06 09:07 39.20578 125.67010 108 ft 44 kts 164°
2026-05-06 09:08 39.20336 125.67146 103 ft 35 kts 128°
2026-05-06 09:08 39.20246 125.67357 104 ft 21 kts 116°
2026-05-06 09:08 39.20186 125.67433 106 ft 10 kts 168°
2026-05-06 09:08 39.20104 125.67458 106 ft 13 kts 166°
2026-05-06 09:09 39.20048 125.67477 106 ft 3 kts 166°
2026-05-06 09:09 39.20026 125.67484 105 ft 1 kts 166°
2026-05-06 09:09 39.20001 125.67494 105 ft 4 kts 154°
2026-05-06 09:09 39.19992 125.67509 105 ft 1 kts 108°
2026-05-06 09:10 39.19989 125.67529 105 ft 2 kts 95°
2026-05-06 09:10 39.19991 125.67553 106 ft 2 kts 77°
2026-05-06 09:10 39.19995 125.67570 106 ft 0 kts 73°
2026-05-06 09:13 39.19996 125.67575 107 ft 1 kts 73°
2026-05-06 09:13 39.19997 125.67581 107 ft 0 kts 73°